contact:dominique.lefevre@mio.osupytheas.fr, maurice.libes@osupytheas.fr, didier.mallarino@osupytheas.fr
Project:EMSO http://www.emso-fr.org/EMSO-France
Depth: 2436.0 m
Title:EMSO Ligure Ouest : Data MII capteur AQUADOPP
Date,Latitude,Longitude,X_East,Y_North,Z_Up,Amplitude_X,Amplitude_Y,Amplitude_Z,Batterie,SoundSpeed,Heading,Pitch,Roll,Pressure,TIS,Speed,Direction
, degrees North, degrees East, m.s-1, m.s-1,m.s-1, 1, 1, 1, Volt, m.s-1, degree, degree, degree, dbar, degree_C, m.s-1, degree
2024-01-03T00:04:03,42.805,6.029,0.016,-0.042,0.002,106.0,106.0,103.0,13.4,1505.2,349.8,-0.8,1.8,2471.569,13.28,0.044,159.1
2024-01-03T00:07:03,42.805,6.029,0.016,-0.031,0.0,106.0,106.0,104.0,13.4,1505.2,2.3,-0.8,1.8,2471.57,13.28,0.034,152.7
2024-01-03T00:10:03,42.805,6.029,-0.002,-0.044,0.001,105.0,107.0,102.0,13.4,1505.2,2.8,-0.7,1.8,2471.578,13.29,0.044,182.6
2024-01-03T00:13:03,42.805,6.029,0.015,-0.042,0.0,107.0,106.0,103.0,13.3,1505.2,347.9,-0.8,1.8,2471.564,13.29,0.044,160.4
2024-01-03T00:16:03,42.805,6.029,0.019,-0.044,0.023,106.0,105.0,103.0,13.3,1505.2,348.1,-0.8,1.8,2471.548,13.29,0.047,156.6
2024-01-03T00:19:03,42.805,6.029,0.017,-0.048,-0.026,107.0,105.0,105.0,13.4,1505.2,349.4,-0.8,1.8,2471.582,13.29,0.05,160.5
2024-01-03T00:22:03,42.805,6.029,0.012,-0.05,0.0,106.0,107.0,103.0,13.3,1505.2,355.7,-0.8,1.8,2471.558,13.29,0.051,166.5
2024-01-03T00:25:03,42.805,6.029,0.015,-0.032,-0.022,106.0,105.0,104.0,13.3,1505.2,343.5,-0.8,1.8,2471.539,13.29,0.035,154.9
2024-01-03T00:28:03,42.805,6.029,0.011,-0.029,-0.04,106.0,107.0,103.0,13.4,1505.2,356.0,-0.8,1.8,2471.576,13.29,0.031,159.2
2024-01-03T00:31:03,42.805,6.029,0.0,-0.039,-0.042,107.0,106.0,103.0,13.3,1505.2,0.0,-0.8,1.8,2471.544,13.29,0.039,180.0
2024-01-03T00:34:03,42.805,6.029,0.009,-0.031,-0.017,106.0,106.0,103.0,13.4,1505.2,3.1,-0.8,1.8,2471.556,13.29,0.032,163.8
2024-01-03T00:37:03,42.805,6.029,0.024,-0.033,-0.006,108.0,106.0,104.0,13.4,1505.2,342.8,-0.8,1.8,2471.522,13.29,0.04,144.0
2024-01-03T00:40:03,42.805,6.029,0.039,-0.046,-0.018,105.0,107.0,104.0,13.4,1505.2,341.5,-0.7,1.8,2471.569,13.29,0.06,139.7
2024-01-03T00:43:03,42.805,6.029,0.026,-0.048,-0.019,106.0,106.0,103.0,13.4,1505.2,354.1,-0.7,1.8,2471.561,13.29,0.054,151.6
2024-01-03T00:46:03,42.805,6.029,0.011,-0.054,-0.02,106.0,105.0,103.0,13.3,1505.2,3.0,-0.7,1.8,2471.53,13.29,0.055,168.5
2024-01-03T00:49:03,42.805,6.029,0.015,-0.06,-0.022,106.0,106.0,104.0,13.4,1505.2,357.8,-0.8,1.8,2471.592,13.29,0.061,166.0
2024-01-03T00:52:03,42.805,6.029,0.017,-0.035,-0.03,106.0,105.0,103.0,13.3,1505.2,340.8,-0.8,1.8,2471.569,13.29,0.038,154.1
2024-01-03T00:55:03,42.805,6.029,0.029,-0.068,-0.023,107.0,105.0,103.0,13.4,1505.2,354.2,-0.7,1.8,2471.521,13.29,0.073,156.9
2024-01-03T00:58:03,42.805,6.029,0.013,-0.068,0.012,106.0,105.0,103.0,13.4,1505.2,358.4,-0.8,1.8,2471.554,13.29,0.069,169.2
2024-01-03T01:04:03,42.805,6.029,0.015,-0.049,-0.054,108.0,106.0,104.0,13.4,1505.2,352.3,-0.8,1.8,2471.598,13.28,0.051,163.0
2024-01-03T01:07:03,42.805,6.029,0.025,-0.045,-0.005,106.0,106.0,103.0,13.4,1505.2,2.3,-0.8,1.8,2471.548,13.28,0.051,150.9
2024-01-03T01:10:03,42.805,6.029,0.023,-0.032,-0.002,106.0,105.0,104.0,13.3,1505.2,347.9,-0.8,1.8,2471.563,13.29,0.039,144.3
2024-01-03T01:13:03,42.805,6.029,0.006,-0.04,-0.015,105.0,106.0,102.0,13.4,1505.2,348.6,-0.8,1.8,2471.596,13.29,0.04,171.5
2024-01-03T01:16:03,42.805,6.029,0.008,-0.048,-0.01,105.0,106.0,103.0,13.3,1505.2,356.3,-0.8,1.8,2471.625,13.29,0.048,170.5
2024-01-03T01:19:03,42.805,6.029,0.021,-0.056,-0.057,106.0,105.0,103.0,13.3,1505.2,343.7,-0.7,1.8,2471.549,13.29,0.059,159.4
2024-01-03T01:22:03,42.805,6.029,0.037,-0.047,-0.024,105.0,105.0,103.0,13.4,1505.2,348.2,-0.7,1.8,2471.576,13.29,0.059,141.8
2024-01-03T01:25:03,42.805,6.029,0.013,-0.056,0.011,106.0,105.0,104.0,13.3,1505.2,354.4,-0.8,1.8,2471.619,13.29,0.057,166.9
2024-01-03T01:28:03,42.805,6.029,0.001,-0.056,-0.031,106.0,105.0,103.0,13.4,1505.2,359.2,-0.8,1.9,2471.548,13.29,0.056,179.0
2024-01-03T01:31:03,42.805,6.029,0.014,-0.066,-0.018,106.0,106.0,102.0,13.4,1505.2,3.9,-0.8,1.8,2471.512,13.29,0.067,168.0
2024-01-03T01:34:03,42.805,6.029,0.008,-0.05,-0.041,106.0,105.0,104.0,13.3,1505.2,342.0,-0.8,1.8,2471.534,13.29,0.05,170.9
2024-01-03T01:37:03,42.805,6.029,0.023,-0.058,-0.034,105.0,106.0,104.0,13.4,1505.2,347.9,-0.7,1.8,2471.522,13.29,0.062,158.4
2024-01-03T01:40:03,42.805,6.029,0.027,-0.067,-0.002,106.0,105.0,103.0,13.3,1505.2,2.1,-0.8,1.8,2471.499,13.29,0.072,158.1
2024-01-03T01:43:03,42.805,6.029,0.039,-0.038,0.034,105.0,106.0,103.0,13.4,1505.2,340.6,-0.7,1.8,2471.563,13.29,0.054,134.3
2024-01-03T01:46:03,42.805,6.029,0.015,-0.069,-0.025,106.0,106.0,103.0,13.4,1505.2,0.0,-0.8,1.8,2471.544,13.29,0.07,167.7
2024-01-03T01:49:03,42.805,6.029,0.022,-0.056,-0.019,106.0,105.0,103.0,13.4,1505.2,348.6,-0.8,1.8,2471.508,13.29,0.06,158.6
2024-01-03T01:52:03,42.805,6.029,0.025,-0.072,-0.01,105.0,105.0,103.0,13.4,1505.2,2.4,-0.8,1.8,2471.529,13.29,0.076,160.9
2024-01-03T01:55:03,42.805,6.029,0.033,-0.044,-0.005,106.0,105.0,103.0,13.4,1505.2,343.3,-0.8,1.8,2471.506,13.29,0.055,143.1
2024-01-03T01:58:03,42.805,6.029,0.008,-0.054,-0.016,106.0,105.0,103.0,13.4,1505.2,354.6,-0.8,1.8,2471.493,13.29,0.054,171.6
2024-01-03T02:04:03,42.805,6.029,0.012,-0.065,-0.033,106.0,107.0,104.0,13.4,1505.2,358.3,-0.8,1.8,2471.57,13.28,0.066,169.5
2024-01-03T02:07:03,42.805,6.029,-0.01,-0.037,-0.016,106.0,107.0,103.0,13.4,1505.2,3.1,-0.7,1.8,2471.566,13.28,0.038,195.1
2024-01-03T02:10:03,42.805,6.029,0.017,-0.039,-0.017,106.0,105.0,104.0,13.3,1505.2,344.2,-0.8,1.8,2471.553,13.29,0.042,156.5
2024-01-03T02:13:03,42.805,6.029,0.001,-0.047,-0.005,106.0,106.0,103.0,13.4,1505.2,350.9,-0.8,1.8,2471.51,13.29,0.047,178.8
2024-01-03T02:16:03,42.805,6.029,0.027,-0.04,0.018,106.0,106.0,103.0,13.3,1505.2,348.1,-0.7,1.8,2471.569,13.29,0.048,146.0
2024-01-03T02:19:07,42.805,6.029,0.027,-0.055,0.009,105.0,105.0,103.0,13.3,1505.2,357.5,-0.7,1.8,2471.57,13.29,0.061,153.9
2024-01-03T02:22:03,42.805,6.029,0.019,-0.047,-0.017,105.0,106.0,104.0,13.4,1505.2,354.2,-0.7,1.8,2471.541,13.29,0.05,158.0
2024-01-03T02:25:03,42.805,6.029,0.023,-0.057,-0.001,107.0,106.0,104.0,13.4,1505.2,353.2,-0.8,1.8,2471.487,13.29,0.061,158.0
2024-01-03T02:28:03,42.805,6.029,-0.009,-0.058,0.005,106.0,106.0,103.0,13.4,1505.2,4.6,-0.8,1.8,2471.554,13.29,0.058,188.8
2024-01-03T02:31:03,42.805,6.029,0.024,-0.056,-0.013,107.0,106.0,104.0,13.4,1505.2,347.8,-0.8,1.8,2471.506,13.29,0.06,156.8
2024-01-03T02:34:03,42.805,6.029,0.024,-0.054,-0.023,107.0,107.0,103.0,13.4,1505.2,356.7,-0.8,1.8,2471.53,13.29,0.059,156.0
2024-01-03T02:37:03,42.805,6.029,0.025,-0.066,-0.029,105.0,106.0,104.0,13.4,1505.2,352.5,-0.8,1.8,2471.522,13.29,0.07,159.3
2024-01-03T02:40:03,42.805,6.029,0.002,-0.061,-0.003,105.0,107.0,105.0,13.4,1505.2,5.3,-0.8,1.8,2471.533,13.29,0.061,178.1
2024-01-03T02:43:03,42.805,6.029,0.012,-0.047,-0.001,106.0,105.0,103.0,13.3,1505.2,5.2,-0.8,1.8,2471.522,13.29,0.048,165.7
2024-01-03T02:46:03,42.805,6.029,0.0,-0.051,-0.052,105.0,105.0,104.0,13.4,1505.2,345.9,-0.8,1.8,2471.517,13.29,0.051,180.0
2024-01-03T02:49:03,42.805,6.029,0.015,-0.031,0.01,107.0,105.0,103.0,13.4,1505.2,347.2,-0.8,1.8,2471.52,13.29,0.034,154.2
2024-01-03T02:52:03,42.805,6.029,0.002,-0.044,-0.005,105.0,105.0,104.0,13.3,1505.2,349.5,-0.7,1.8,2471.529,13.29,0.044,177.4
2024-01-03T02:55:03,42.805,6.029,0.023,-0.065,-0.014,106.0,107.0,103.0,13.4,1505.2,356.2,-0.8,1.8,2471.509,13.29,0.068,160.5
2024-01-03T02:58:03,42.805,6.029,0.013,-0.073,0.005,106.0,105.0,104.0,13.4,1505.2,356.7,-0.7,1.8,2471.521,13.29,0.074,169.9
2024-01-03T03:04:03,42.805,6.029,0.008,-0.047,-0.008,107.0,106.0,103.0,13.3,1505.2,356.9,-0.8,1.8,2471.544,13.28,0.047,170.3
2024-01-03T03:07:03,42.805,6.029,0.0,-0.033,0.012,106.0,106.0,104.0,13.3,1505.2,0.7,-0.8,1.8,2471.541,13.28,0.033,180.0
2024-01-03T03:10:03,42.805,6.029,0.023,-0.064,0.006,108.0,106.0,103.0,13.3,1505.2,0.0,-0.7,1.8,2471.556,13.29,0.068,160.2
2024-01-03T03:13:03,42.805,6.029,0.037,-0.081,-0.029,105.0,105.0,103.0,13.4,1505.2,346.5,-0.7,1.8,2471.558,13.29,0.089,155.5
2024-01-03T03:16:03,42.805,6.029,0.032,-0.067,-0.006,105.0,105.0,103.0,13.4,1505.2,348.8,-0.8,1.8,2471.542,13.29,0.074,154.5
2024-01-03T03:19:03,42.805,6.029,0.031,-0.068,0.007,106.0,106.0,104.0,13.4,1505.2,348.3,-0.8,1.8,2471.529,13.29,0.074,155.5
2024-01-03T03:22:03,42.805,6.029,-0.002,-0.055,-0.026,107.0,104.0,104.0,13.3,1505.2,2.2,-0.7,1.8,2471.494,13.29,0.055,182.1
2024-01-03T03:25:03,42.805,6.029,-0.002,-0.062,-0.03,106.0,104.0,104.0,13.4,1505.2,343.5,-0.7,1.8,2471.495,13.29,0.062,181.8
2024-01-03T03:28:03,42.805,6.029,0.03,-0.034,-0.033,105.0,106.0,103.0,13.3,1505.2,352.6,-0.8,1.8,2471.546,13.29,0.045,138.6
2024-01-03T03:31:03,42.805,6.029,0.012,-0.044,-0.01,107.0,106.0,104.0,13.3,1505.2,357.6,-0.8,1.8,2471.517,13.29,0.045,164.7
2024-01-03T03:34:03,42.805,6.029,0.0,-0.049,-0.037,107.0,105.0,103.0,13.4,1505.2,5.3,-0.7,1.8,2471.519,13.29,0.049,180.0
2024-01-03T03:37:03,42.805,6.029,0.012,-0.029,-0.034,106.0,105.0,104.0,13.4,1505.2,354.1,-0.8,1.8,2471.484,13.29,0.031,157.5
2024-01-03T03:40:03,42.805,6.029,0.021,-0.037,-0.002,106.0,106.0,104.0,13.4,1505.2,348.9,-0.8,1.8,2471.496,13.29,0.042,150.4
2024-01-03T03:43:03,42.805,6.029,-0.015,-0.041,-0.026,107.0,105.0,104.0,13.3,1505.2,357.7,-0.8,1.8,2471.505,13.29,0.043,200.1
2024-01-03T03:46:03,42.805,6.029,0.009,-0.045,-0.007,106.0,105.0,103.0,13.4,1505.2,357.6,-0.8,1.8,2471.551,13.29,0.045,168.7
2024-01-03T03:49:03,42.805,6.029,0.009,-0.053,-0.001,104.0,105.0,103.0,13.4,1505.2,3.0,-0.8,1.8,2471.518,13.29,0.053,170.4
2024-01-03T03:52:03,42.805,6.029,0.034,-0.033,0.004,106.0,106.0,103.0,13.4,1505.2,355.8,-0.8,1.8,2471.474,13.29,0.047,134.1
2024-01-03T03:55:03,42.805,6.029,0.029,-0.057,-0.014,106.0,104.0,103.0,13.4,1505.2,347.9,-0.7,1.8,2471.507,13.29,0.063,153.0
2024-01-03T03:58:03,42.805,6.029,0.01,-0.041,-0.02,106.0,106.0,103.0,13.4,1505.2,3.0,-0.8,1.8,2471.497,13.29,0.042,166.3
2024-01-03T04:04:03,42.805,6.029,-0.017,-0.067,-0.03,106.0,105.0,102.0,13.4,1505.2,3.9,-0.8,1.8,2471.571,13.28,0.069,194.2
2024-01-03T04:07:03,42.805,6.029,0.027,-0.055,0.003,106.0,105.0,103.0,13.4,1505.2,346.3,-0.8,1.8,2471.54,13.28,0.061,153.9
2024-01-03T04:10:03,42.805,6.029,0.004,-0.042,-0.024,105.0,105.0,103.0,13.4,1505.2,350.9,-0.8,1.8,2471.546,13.29,0.042,174.6
2024-01-03T04:13:03,42.805,6.029,0.027,-0.06,0.002,106.0,104.0,104.0,13.4,1505.2,347.2,-0.8,1.8,2471.522,13.29,0.065,155.8
2024-01-03T04:16:03,42.805,6.029,0.025,-0.053,-0.011,106.0,105.0,103.0,13.4,1505.2,2.9,-0.8,1.8,2471.521,13.29,0.058,154.7
2024-01-03T04:19:03,42.805,6.029,0.004,-0.036,-0.013,105.0,106.0,103.0,13.4,1505.2,354.9,-0.7,1.8,2471.514,13.29,0.036,173.7
2024-01-03T04:22:03,42.805,6.029,-0.007,-0.041,-0.03,105.0,105.0,103.0,13.4,1505.2,355.9,-0.8,1.8,2471.533,13.29,0.041,189.7
2024-01-03T04:25:03,42.805,6.029,0.04,-0.055,-0.022,106.0,105.0,103.0,13.4,1505.2,349.9,-0.7,1.8,2471.536,13.29,0.068,144.0
2024-01-03T04:28:03,42.805,6.029,0.004,-0.041,-0.016,106.0,105.0,102.0,13.3,1505.2,357.6,-0.7,1.8,2471.511,13.29,0.041,174.4
2024-01-03T04:31:03,42.805,6.029,0.02,-0.035,-0.017,105.0,104.0,103.0,13.4,1505.2,3.8,-0.8,1.8,2471.508,13.29,0.04,150.3
2024-01-03T04:34:03,42.805,6.029,0.027,-0.04,-0.002,105.0,104.0,103.0,13.4,1505.2,342.4,-0.8,1.8,2471.491,13.29,0.048,146.0
2024-01-03T04:37:03,42.805,6.029,-0.003,-0.051,-0.005,105.0,105.0,102.0,13.4,1505.2,354.0,-0.7,1.8,2471.505,13.29,0.051,183.4
2024-01-03T04:40:03,42.805,6.029,0.007,-0.032,-0.03,105.0,105.0,102.0,13.4,1505.2,358.3,-0.8,1.8,2471.477,13.29,0.032,167.7
2024-01-03T04:43:03,42.805,6.029,0.007,-0.034,-0.015,105.0,105.0,103.0,13.3,1505.2,3.8,-0.8,1.8,2471.526,13.29,0.034,168.4
2024-01-03T04:46:03,42.805,6.029,0.011,-0.025,-0.006,106.0,105.0,103.0,13.4,1505.2,346.3,-0.7,1.8,2471.496,13.29,0.027,156.3
2024-01-03T04:49:03,42.805,6.029,0.0,-0.054,-0.016,105.0,104.0,103.0,13.4,1505.2,358.4,-0.7,1.8,2471.51,13.29,0.053,180.0
2024-01-03T04:52:03,42.805,6.029,0.021,-0.041,0.0,105.0,104.0,103.0,13.3,1505.2,356.6,-0.7,1.8,2471.493,13.29,0.046,152.9
2024-01-03T04:55:03,42.805,6.029,0.015,-0.052,0.0,105.0,105.0,103.0,13.4,1505.2,346.6,-0.8,1.8,2471.521,13.29,0.054,163.9
2024-01-03T04:58:03,42.805,6.029,0.011,-0.05,-0.034,106.0,104.0,102.0,13.3,1505.2,357.5,-0.8,1.8,2471.469,13.29,0.051,167.6
2024-01-03T05:04:03,42.805,6.029,0.018,-0.044,-0.02,105.0,104.0,103.0,13.4,1505.2,346.6,-0.8,1.8,2471.559,13.28,0.047,157.8
2024-01-03T05:07:03,42.805,6.029,0.017,-0.044,-0.017,106.0,104.0,103.0,13.4,1505.2,348.9,-0.8,1.8,2471.531,13.28,0.047,158.9
2024-01-03T05:10:03,42.805,6.029,0.007,-0.037,-0.03,105.0,106.0,103.0,13.4,1505.2,2.8,-0.8,1.8,2471.526,13.29,0.037,169.3
2024-01-03T05:13:03,42.805,6.029,-0.003,-0.039,-0.019,106.0,104.0,103.0,13.4,1505.2,340.6,-0.8,1.8,2471.515,13.29,0.039,184.4
2024-01-03T05:16:03,42.805,6.029,0.02,-0.034,0.018,104.0,105.0,104.0,13.4,1505.2,355.3,-0.8,1.8,2471.509,13.29,0.039,149.5
2024-01-03T05:19:03,42.805,6.029,0.005,-0.034,-0.008,106.0,104.0,104.0,13.4,1505.2,5.1,-0.8,1.8,2471.5,13.29,0.034,171.6
2024-01-03T05:22:03,42.805,6.029,0.032,-0.044,-0.015,106.0,104.0,103.0,13.3,1505.2,343.2,-0.7,1.8,2471.484,13.29,0.054,144.0
2024-01-03T05:25:03,42.805,6.029,0.023,-0.046,-0.017,106.0,105.0,103.0,13.3,1505.2,348.8,-0.8,1.8,2471.513,13.29,0.051,153.4
2024-01-03T05:28:03,42.805,6.029,0.027,-0.049,-0.015,106.0,106.0,103.0,13.3,1505.2,2.9,-0.8,1.8,2471.51,13.29,0.055,151.1
2024-01-03T05:31:03,42.805,6.029,0.037,-0.055,-0.011,106.0,104.0,104.0,13.4,1505.2,343.1,-0.8,1.8,2471.497,13.29,0.066,146.1
2024-01-03T05:34:03,42.805,6.029,0.031,-0.025,-0.036,105.0,105.0,102.0,13.4,1505.2,350.2,-0.8,1.8,2471.503,13.29,0.039,128.9
2024-01-03T05:37:03,42.805,6.029,0.002,-0.035,-0.034,105.0,105.0,102.0,13.3,1505.2,3.8,-0.8,1.8,2471.481,13.29,0.035,176.7
2024-01-03T05:40:03,42.805,6.029,0.015,-0.032,0.0,106.0,105.0,102.0,13.4,1505.2,0.7,-0.7,1.8,2471.515,13.29,0.035,154.9
2024-01-03T05:43:03,42.805,6.029,0.037,-0.035,-0.044,105.0,105.0,103.0,13.4,1505.2,349.5,-0.8,1.8,2471.513,13.29,0.05,133.4
2024-01-03T05:46:03,42.805,6.029,0.012,-0.038,-0.016,106.0,105.0,103.0,13.4,1505.2,355.9,-0.8,1.8,2471.519,13.29,0.039,162.5
2024-01-03T05:49:03,42.805,6.029,0.018,-0.044,-0.024,106.0,104.0,102.0,13.4,1505.2,357.5,-0.8,1.8,2471.516,13.29,0.047,157.8
2024-01-03T05:52:03,42.805,6.029,0.002,-0.053,-0.007,106.0,106.0,103.0,13.4,1505.2,0.7,-0.8,1.8,2471.527,13.29,0.053,177.8
2024-01-03T05:55:03,42.805,6.029,0.024,-0.028,0.016,104.0,106.0,103.0,13.4,1505.2,344.1,-0.8,1.8,2471.526,13.29,0.036,139.4
2024-01-03T05:58:03,42.805,6.029,0.02,-0.045,-0.012,105.0,105.0,103.0,13.4,1505.2,348.5,-0.7,1.8,2471.48,13.29,0.049,156.0
2024-01-03T06:04:03,42.805,6.029,-0.006,-0.065,-0.03,106.0,105.0,103.0,13.3,1505.2,353.1,-0.8,1.8,2471.56,13.28,0.065,185.3
2024-01-03T06:07:03,42.805,6.029,0.008,-0.047,0.008,104.0,106.0,103.0,13.4,1505.2,0.7,-0.8,1.8,2471.564,13.28,0.047,170.3
2024-01-03T06:10:03,42.805,6.029,0.023,-0.033,0.004,105.0,106.0,103.0,13.4,1505.2,356.0,-0.8,1.8,2471.503,13.29,0.04,145.1
2024-01-03T06:13:03,42.805,6.029,0.013,-0.053,-0.01,106.0,105.0,102.0,13.3,1505.2,4.3,-0.7,1.8,2471.558,13.29,0.054,166.2
2024-01-03T06:16:03,42.805,6.029,0.049,-0.045,-0.017,106.0,104.0,103.0,13.4,1505.2,341.5,-0.8,1.8,2471.506,13.29,0.066,132.6
2024-01-03T06:19:03,42.805,6.029,0.02,-0.056,-0.021,104.0,105.0,103.0,13.4,1505.2,348.2,-0.8,1.8,2471.523,13.29,0.059,160.4
2024-01-03T06:22:03,42.805,6.029,0.019,-0.052,-0.016,104.0,105.0,103.0,13.4,1505.2,2.8,-0.7,1.8,2471.508,13.29,0.055,159.9
2024-01-03T06:25:03,42.805,6.029,0.036,-0.048,0.0,104.0,104.0,103.0,13.3,1505.2,358.4,-0.8,1.8,2471.518,13.29,0.06,143.1
2024-01-03T06:28:03,42.805,6.029,0.013,-0.026,0.005,106.0,105.0,102.0,13.3,1505.2,3.9,-0.8,1.8,2471.486,13.29,0.029,153.4
2024-01-03T06:31:03,42.805,6.029,0.014,-0.059,-0.028,106.0,103.0,103.0,13.3,1505.2,353.4,-0.8,1.8,2471.52,13.29,0.06,166.7
2024-01-03T06:34:03,42.805,6.029,0.004,-0.026,-0.026,105.0,104.0,103.0,13.3,1505.2,354.9,-0.8,1.8,2471.556,13.29,0.026,171.3
2024-01-03T06:37:03,42.805,6.029,0.018,-0.039,0.015,105.0,105.0,102.0,13.4,1505.2,3.6,-0.8,1.8,2471.495,13.29,0.042,155.2
2024-01-03T06:40:03,42.805,6.029,0.03,-0.046,-0.016,105.0,105.0,103.0,13.4,1505.2,354.1,-0.8,1.8,2471.527,13.29,0.054,146.9
2024-01-03T06:43:03,42.805,6.029,0.012,-0.029,-0.031,105.0,104.0,103.0,13.3,1505.2,355.7,-0.8,1.8,2471.531,13.29,0.031,157.5
2024-01-03T06:46:03,42.805,6.029,0.031,-0.052,0.005,106.0,105.0,103.0,13.4,1505.2,356.9,-0.7,1.8,2471.519,13.29,0.06,149.2
2024-01-03T06:49:03,42.805,6.029,0.042,-0.054,0.0,105.0,105.0,102.0,13.3,1505.2,348.1,-0.8,1.8,2471.539,13.29,0.068,142.1
2024-01-03T06:52:03,42.805,6.029,0.023,-0.043,0.017,106.0,106.0,104.0,13.4,1505.2,2.8,-0.8,1.8,2471.568,13.29,0.048,151.9
2024-01-03T06:55:03,42.805,6.029,0.014,-0.032,-0.032,105.0,105.0,103.0,13.3,1505.2,351.8,-0.8,1.8,2471.515,13.29,0.034,156.4
2024-01-03T06:58:03,42.805,6.029,0.034,-0.027,-0.038,105.0,105.0,103.0,13.3,1505.2,349.2,-0.8,1.8,2471.539,13.29,0.043,128.5
2024-01-03T07:04:03,42.805,6.029,0.039,-0.043,0.01,106.0,105.0,104.0,13.4,1505.2,357.7,-0.8,1.8,2471.545,13.28,0.058,137.8
2024-01-03T07:07:03,42.805,6.029,0.007,-0.031,-0.02,106.0,103.0,103.0,13.4,1505.2,3.0,-0.7,1.9,2471.568,13.28,0.031,167.3
2024-01-03T07:10:03,42.805,6.029,0.025,-0.048,-0.034,104.0,106.0,104.0,13.3,1505.2,342.4,-0.7,1.8,2471.551,13.29,0.054,152.5
2024-01-03T07:13:03,42.805,6.029,0.047,-0.025,0.014,106.0,104.0,103.0,13.4,1505.2,353.8,-0.7,1.8,2471.545,13.29,0.053,118.0
2024-01-03T07:16:03,42.805,6.029,0.03,-0.054,0.006,105.0,105.0,103.0,13.3,1505.2,357.1,-0.8,1.8,2471.583,13.29,0.061,150.9
2024-01-03T07:19:03,42.805,6.029,0.03,-0.045,0.0,105.0,105.0,102.0,13.4,1505.2,353.2,-0.8,1.8,2471.562,13.29,0.054,146.3
2024-01-03T07:22:03,42.805,6.029,0.03,-0.043,-0.004,106.0,105.0,102.0,13.3,1505.2,358.3,-0.8,1.8,2471.53,13.29,0.052,145.1
2024-01-03T07:25:03,42.805,6.029,0.028,-0.03,0.003,106.0,105.0,103.0,13.3,1505.2,343.5,-0.7,1.8,2471.556,13.29,0.041,137.0
2024-01-03T07:28:03,42.805,6.029,0.04,-0.043,-0.011,105.0,105.0,104.0,13.4,1505.2,351.8,-0.7,1.8,2471.54,13.29,0.058,137.1
2024-01-03T07:31:03,42.805,6.029,0.011,-0.045,-0.014,106.0,105.0,103.0,13.3,1505.2,0.8,-0.7,1.8,2471.517,13.29,0.046,166.3
2024-01-03T07:34:03,42.805,6.029,0.028,-0.024,-0.02,105.0,105.0,103.0,13.4,1505.2,345.1,-0.8,1.8,2471.538,13.29,0.036,130.6
2024-01-03T07:37:03,42.805,6.029,0.041,-0.057,-0.045,105.0,104.0,104.0,13.4,1505.2,349.1,-0.8,1.8,2471.561,13.29,0.07,144.3
2024-01-03T07:40:03,42.805,6.029,0.011,-0.051,-0.022,107.0,105.0,103.0,13.4,1505.2,359.2,-0.8,1.9,2471.563,13.29,0.052,167.8
2024-01-03T07:43:03,42.805,6.029,0.026,-0.031,0.006,106.0,105.0,104.0,13.3,1505.2,342.0,-0.8,1.8,2471.561,13.29,0.04,140.0
2024-01-03T07:46:03,42.805,6.029,0.011,-0.048,-0.019,106.0,105.0,104.0,13.3,1505.2,357.6,-0.8,1.8,2471.503,13.29,0.049,167.1
2024-01-03T07:49:03,42.805,6.029,0.019,-0.027,0.011,105.0,104.0,104.0,13.4,1505.2,0.7,-0.7,1.8,2471.53,13.29,0.033,144.9
2024-01-03T07:52:03,42.805,6.029,0.024,-0.035,0.011,106.0,103.0,103.0,13.4,1505.2,350.9,-0.7,1.8,2471.58,13.29,0.042,145.6
2024-01-03T07:55:03,42.805,6.029,0.012,-0.035,-0.014,106.0,105.0,103.0,13.3,1505.2,350.4,-0.7,1.8,2471.506,13.29,0.037,161.1
2024-01-03T07:58:03,42.805,6.029,0.043,-0.025,-0.023,106.0,105.0,104.0,13.3,1505.2,342.0,-0.7,1.8,2471.568,13.29,0.049,120.2
2024-01-03T08:04:03,42.805,6.029,0.021,-0.045,-0.004,106.0,105.0,103.0,13.4,1505.2,3.1,-0.8,1.8,2471.599,13.28,0.049,155.0
2024-01-03T08:07:03,42.805,6.029,0.015,-0.021,0.009,106.0,106.0,103.0,13.3,1505.2,341.0,-0.7,1.8,2471.621,13.28,0.025,144.5
2024-01-03T08:10:03,42.805,6.029,0.023,-0.041,-0.04,105.0,105.0,103.0,13.4,1505.2,346.8,-0.7,1.8,2471.601,13.29,0.047,150.7
2024-01-03T08:13:03,42.805,6.029,0.029,-0.012,0.011,105.0,106.0,103.0,13.4,1505.2,347.1,-0.8,1.8,2471.602,13.29,0.031,112.5
2024-01-03T08:16:03,42.805,6.029,0.014,-0.039,-0.025,105.0,106.0,103.0,13.3,1505.2,354.6,-0.7,1.8,2471.597,13.29,0.041,160.3
2024-01-03T08:19:03,42.805,6.029,0.034,-0.024,-0.006,107.0,105.0,104.0,13.3,1505.2,352.7,-0.7,1.8,2471.589,13.29,0.041,125.2
2024-01-03T08:22:03,42.805,6.029,0.007,-0.044,-0.017,107.0,105.0,104.0,13.3,1505.2,2.2,-0.8,1.9,2471.571,13.29,0.044,171.0
2024-01-03T08:25:03,42.805,6.029,0.025,-0.017,0.001,106.0,104.0,103.0,13.4,1505.2,339.9,-0.7,1.8,2471.573,13.29,0.03,124.2
2024-01-03T08:28:03,42.805,6.029,0.023,-0.034,-0.026,106.0,106.0,103.0,13.4,1505.2,357.8,-0.8,1.8,2471.605,13.29,0.041,145.9
2024-01-03T08:31:03,42.805,6.029,0.027,-0.063,-0.022,106.0,106.0,104.0,13.4,1505.2,359.2,-0.8,1.8,2471.556,13.29,0.068,156.8
2024-01-03T08:34:03,42.805,6.029,0.031,-0.035,-0.021,106.0,106.0,103.0,13.4,1505.2,340.1,-0.7,1.8,2471.595,13.29,0.046,138.5
2024-01-03T08:37:03,42.805,6.029,0.021,-0.033,-0.008,106.0,105.0,104.0,13.4,1505.2,356.7,-0.7,1.8,2471.588,13.29,0.039,147.5
2024-01-03T08:40:03,42.805,6.029,0.011,-0.046,0.007,106.0,107.0,104.0,13.3,1505.2,357.5,-0.8,1.8,2471.613,13.29,0.047,166.6
2024-01-03T08:43:03,42.805,6.029,0.03,-0.046,-0.008,108.0,106.0,104.0,13.4,1505.2,348.9,-0.8,1.9,2471.563,13.29,0.054,146.9
2024-01-03T08:46:03,42.805,6.029,0.019,-0.048,0.025,107.0,106.0,104.0,13.3,1505.2,356.8,-0.8,1.8,2471.591,13.29,0.051,158.4
2024-01-03T08:49:03,42.805,6.029,0.011,-0.006,-0.036,106.0,107.0,104.0,13.3,1505.2,357.4,-0.8,1.8,2471.609,13.29,0.012,118.6
2024-01-03T08:52:03,42.805,6.029,0.033,-0.038,-0.004,107.0,106.0,103.0,13.4,1505.2,343.7,-0.8,1.8,2471.601,13.29,0.05,139.0
2024-01-03T08:55:03,42.805,6.029,0.026,-0.053,-0.007,106.0,106.0,104.0,13.4,1505.2,356.8,-0.8,1.8,2471.58,13.29,0.059,153.9
2024-01-03T08:58:03,42.805,6.029,0.02,-0.039,-0.042,106.0,106.0,103.0,13.3,1505.2,1.4,-0.7,1.8,2471.604,13.29,0.043,152.9
2024-01-03T09:04:03,42.805,6.029,0.022,-0.033,-0.025,106.0,107.0,104.0,13.3,1505.2,3.0,-0.8,1.8,2471.687,13.28,0.039,146.3
2024-01-03T09:07:03,42.805,6.029,0.032,-0.033,0.004,107.0,106.0,104.0,13.4,1505.2,347.2,-0.8,1.8,2471.653,13.29,0.045,135.9
2024-01-03T09:10:03,42.805,6.029,0.029,-0.035,-0.008,108.0,106.0,103.0,13.3,1505.2,356.5,-0.8,1.8,2471.635,13.29,0.045,140.4
2024-01-03T09:13:03,42.805,6.029,0.014,-0.034,-0.011,107.0,106.0,104.0,13.4,1505.2,3.0,-0.8,1.8,2471.637,13.29,0.036,157.6
2024-01-03T09:16:03,42.805,6.029,0.029,-0.039,-0.028,108.0,106.0,104.0,13.3,1505.2,345.9,-0.8,1.8,2471.589,13.29,0.048,143.4
2024-01-03T09:19:03,42.805,6.029,0.026,-0.045,0.014,108.0,106.0,104.0,13.4,1505.2,348.5,-0.7,1.8,2471.64,13.29,0.051,150.0
2024-01-03T09:22:03,42.805,6.029,0.021,-0.037,0.0,108.0,106.0,103.0,13.4,1505.2,0.0,-0.8,1.8,2471.624,13.29,0.042,150.4
2024-01-03T09:25:03,42.805,6.029,0.016,-0.043,-0.017,107.0,108.0,104.0,13.4,1505.2,0.0,-0.8,1.8,2471.659,13.29,0.045,159.6
2024-01-03T09:28:03,42.805,6.029,0.007,-0.037,0.026,107.0,107.0,104.0,13.4,1505.2,3.8,-0.8,1.8,2471.57,13.29,0.037,169.3
2024-01-03T09:31:03,42.805,6.029,0.031,-0.04,-0.008,107.0,106.0,106.0,13.4,1505.2,344.2,-0.8,1.8,2471.63,13.29,0.05,142.2
2024-01-03T09:34:03,42.805,6.029,0.035,-0.024,-0.01,107.0,106.0,104.0,13.4,1505.2,348.8,-0.8,1.8,2471.633,13.29,0.042,124.4
2024-01-03T09:37:03,42.805,6.029,0.022,-0.041,0.013,105.0,106.0,103.0,13.3,1505.2,2.2,-0.8,1.8,2471.612,13.29,0.046,151.8
2024-01-03T09:40:03,42.805,6.029,0.035,-0.04,0.002,107.0,106.0,104.0,13.4,1505.2,355.8,-0.8,1.8,2471.645,13.29,0.053,138.8
2024-01-03T09:43:03,42.805,6.029,0.037,-0.039,0.006,107.0,106.0,104.0,13.3,1505.2,359.1,-0.8,1.8,2471.638,13.29,0.053,136.5
2024-01-03T09:46:03,42.805,6.029,0.028,-0.055,-0.018,107.0,106.0,103.0,13.4,1505.2,355.6,-0.8,1.8,2471.629,13.29,0.061,153.0
2024-01-03T09:49:03,42.805,6.029,0.016,-0.041,-0.013,107.0,107.0,103.0,13.4,1505.2,357.6,-0.8,1.8,2471.614,13.29,0.044,158.7
2024-01-03T09:52:03,42.805,6.029,0.017,-0.047,0.004,106.0,107.0,103.0,13.3,1505.2,2.3,-0.8,1.8,2471.603,13.29,0.049,160.1
2024-01-03T09:55:03,42.805,6.029,0.03,-0.034,0.013,107.0,107.0,104.0,13.4,1505.2,346.7,-0.8,1.8,2471.595,13.29,0.045,138.6
2024-01-03T09:58:03,42.805,6.029,0.024,-0.064,0.013,108.0,105.0,104.0,13.3,1505.2,348.6,-0.8,1.8,2471.626,13.29,0.068,159.4